Theta_e
323 323 326 322 306 304 297 300 306 305 306 309 310 306 303 305 304 304 332 337 339 341 345 349 349 352 353 352 351 350 349 349 348 346 345 344 343 342 342 344 344 343 341 340 337 340 339 338 337
319 321 322 315 300 294 296 304 302 306 310 310 308 307 304 303 310 327 330 338 340 344 346 346 346 351 352 351 350 350 349 349 348 347 344 343 341 342 340 342 343 343 338 336 334 336 336 336 336
315 319 311 305 299 294 296 302 304 308 310 309 307 309 308 306 317 328 336 338 340 345 346 345 346 350 351 350 349 349 348 348 348 347 344 342 342 343 343 343 343 340 337 336 334 335 333 333 334
311 312 311 298 295 300 300 303 306 307 310 310 310 305 311 324 325 331 337 339 338 344 346 342 346 350 350 349 349 349 348 348 348 347 346 344 344 344 344 343 341 340 337 334 333 334 332 331 330
308 308 297 294 294 298 302 306 307 305 308 309 310 306 309 327 330 333 336 339 337 342 344 344 345 347 348 349 349 348 347 347 347 346 346 345 344 343 343 342 342 339 336 334 333 334 333 332 330
300 301 291 290 294 298 301 304 304 305 307 309 308 307 310 327 330 333 337 337 339 342 343 344 339 342 345 346 347 346 346 346 346 346 345 344 343 342 342 341 342 339 333 334 334 335 333 332 331
295 295 290 291 292 295 299 304 302 303 307 307 311 306 311 326 331 336 337 338 341 343 343 343 343 341 337 341 342 343 344 344 344 344 342 341 340 340 340 339 340 339 336 333 333 333 334 332 331
299 296 290 291 290 292 299 300 302 302 306 313 312 305 306 325 333 336 338 337 339 341 343 342 342 342 342 341 335 337 339 340 340 339 337 335 335 335 334 333 337 338 337 333 333 332 331 331 331
300 290 287 289 291 293 299 297 301 306 307 309 311 311 321 326 330 331 331 332 334 338 341 342 341 340 340 341 335 332 334 335 334 333 331 330 335 332 329 329 333 336 333 334 332 330 330 329 327
292 287 287 292 292 291 295 297 298 300 303 304 307 313 315 316 315 320 324 326 330 332 336 339 338 340 339 340 337 338 338 338 338 337 333 336 334 331 330 326 328 330 330 332 331 330 328 324 319
291 285 290 290 292 293 292 292 296 295 297 303 304 307 309 308 310 313 317 322 326 332 335 338 337 338 339 337 337 336 335 336 337 336 336 334 333 330 327 327 326 324 321 322 324 323 319 317 316
286 290 290 291 292 290 289 291 289 290 291 297 300 304 304 305 305 308 312 316 324 329 332 336 336 337 337 335 334 332 331 331 331 335 335 333 331 329 329 328 325 323 321 317 317 316 314 313 316
287 288 291 292 291 290 291 288 288 288 291 293 294 298 300 302 304 307 311 318 320 324 330 333 335 336 336 333 333 331 331 332 333 334 335 333 331 328 329 328 325 322 321 316 314 313 314 316 317
289 289 289 290 290 291 289 288 289 289 291 291 292 293 294 297 300 305 309 314 316 320 326 332 333 335 335 333 332 331 333 334 335 334 334 333 331 330 328 327 323 323 321 317 315 314 315 316 317
290 285 288 289 290 289 291 285 286 291 292 290 291 293 293 295 300 302 306 310 313 315 322 329 331 333 333 332 333 332 333 334 334 334 334 332 331 329 326 322 320 320 319 316 313 313 315 315 317
285 285 279 287 290 290 289 280 288 291 290 289 290 291 293 294 296 297 303 306 308 313 317 324 332 332 333 332 333 332 331 333 333 333 334 333 332 329 324 322 320 319 317 314 311 312 314 314 314
283 276 280 282 290 289 286 281 288 292 291 288 289 289 291 293 294 295 296 301 306 308 314 320 329 329 333 333 332 332 331 332 332 333 333 332 331 330 325 322 321 319 315 312 312 314 316 315 315
275 278 281 280 286 288 284 283 287 290 290 289 287 288 290 291 293 296 298 302 306 310 315 321 325 327 330 332 331 331 330 330 332 332 332 332 331 329 324 322 322 319 315 312 313 314 317 316 315
282 280 279 283 287 285 283 284 287 289 289 288 289 290 290 291 294 296 297 298 300 306 310 319 322 326 330 329 327 327 327 329 330 331 331 329 330 328 323 322 322 320 316 312 314 316 316 315 316
283 280 280 284 287 285 283 282 286 289 289 289 289 289 291 291 293 295 296 296 296 303 305 317 321 325 327 329 329 328 328 328 329 330 328 328 327 325 323 322 321 319 316 313 314 316 316 316 317
282 281 280 280 284 285 283 280 283 288 290 290 291 291 291 291 291 293 295 295 296 301 310 317 317 326 329 329 329 327 327 326 326 325 325 326 326 324 323 323 321 319 317 314 315 317 317 315 317
279 286 285 283 281 275 284 273 281 284 285 288 289 289 290 291 292 293 294 294 296 308 308 312 313 319 327 329 327 325 324 322 324 324 325 325 325 324 324 323 323 321 318 315 315 318 319 317 316
282 287 285 284 281 280 280 275 278 284 282 284 286 288 289 291 290 291 292 294 303 303 307 309 311 315 317 327 327 326 324 325 324 324 324 324 324 324 324 323 323 324 321 319 317 318 319 319 317
288 285 284 283 278 271 275 276 272 279 282 284 286 287 288 290 290 290 292 300 300 300 302 307 309 309 312 316 325 325 324 324 323 323 323 323 324 323 324 324 323 324 324 321 320 320 320 320 320
284 279 273 271 270 265 272 274 274 281 283 284 285 287 289 289 289 289 295 297 299 300 302 303 306 305 306 309 312 315 321 322 321 321 322 322 322 323 323 323 323 324 324 324 323 322 321 321 320
280 280 274 268 269 272 276 269 273 282 284 286 286 287 289 291 290 294 295 297 296 297 299 300 300 300 303 303 302 304 307 308 308 309 313 318 321 322 323 323 323 324 324 324 323 323 322 322 321
278 274 282 274 276 272 271 276 283 282 282 283 286 288 288 290 290 291 293 294 294 294 296 297 297 297 298 298 298 298 298 300 301 301 302 303 304 307 314 322 323 323 324 323 323 322 321 320 318
282 283 273 276 265 263 270 271 271 276 277 281 285 286 287 288 289 290 291 291 292 293 294 295 296 294 295 295 295 295 295 295 296 296 295 296 297 300 300 301 304 305 303 305 314 310 305 304 298
278 277 279 278 277 271 270 269 277 277 278 279 281 284 285 285 287 288 289 290 291 293 292 293 294 293 294 293 293 292 292 293 293 292 293 293 294 295 295 296 296 296 296 297 295 294 294 293 292
281 277 279 274 271 273 275 270 279 280 280 280 280 282 283 284 284 285 287 288 288 289 290 290 290 290 290 291 291 290 291 291 290 290 291 291 291 292 291 292 291 291 292 292 291 290 291 290 289
Wind_Speed
18 14 7 4 5 6 13 15 14 14 5 2 7 5 1 7 2 2 3 6 5 17 16 15 16 16 16 16 17 17 17 17 17 16 15 15 14 15 15 13 15 15 12 16 13 14 17 13 17
11 14 5 4 8 11 13 14 15 11 9 9 5 4 4 7 6 8 5 1 7 17 15 14 13 16 16 16 17 18 18 17 16 16 16 15 14 13 14 13 14 16 14 13 14 11 14 13 14
14 11 3 5 8 21 9 10 11 14 8 9 4 2 3 3 5 6 5 1 5 15 15 13 15 16 17 17 17 17 17 17 17 16 16 16 15 12 12 12 13 15 13 13 12 13 12 11 11
5 3 4 9 22 18 23 16 18 9 6 7 8 4 5 9 5 6 5 4 5 13 14 17 15 18 18 17 17 17 17 18 17 16 16 15 14 13 13 11 12 14 12 12 12 14 13 11 11
4 5 10 14 24 23 17 13 15 16 7 9 9 8 7 7 7 8 8 4 5 10 9 15 16 16 18 18 17 17 17 18 16 17 16 15 14 13 12 13 12 13 13 12 11 14 12 11 11
4 4 9 18 23 17 16 17 20 10 6 7 9 7 3 7 8 7 6 5 4 10 10 12 12 13 16 17 17 16 16 16 16 16 16 15 15 13 13 14 13 11 11 12 10 12 13 11 10
7 8 15 21 19 19 14 13 17 17 10 10 8 8 7 11 8 7 7 6 6 9 10 10 11 11 12 13 14 14 14 13 13 13 14 13 14 14 12 11 11 13 15 12 10 9 10 10 9
5 6 14 13 14 24 15 21 20 13 14 10 8 11 6 7 10 7 6 7 5 5 8 11 11 10 10 9 12 13 13 11 11 11 12 11 12 11 12 10 12 14 16 12 10 9 8 8 7
8 7 10 13 15 18 16 13 17 7 4 5 6 6 7 7 3 8 6 3 5 4 6 10 12 12 12 10 8 10 12 12 12 10 12 11 7 8 9 8 11 11 11 14 11 9 8 8 7
5 8 9 10 11 14 16 15 18 11 11 1 5 1 11 8 6 3 6 7 5 5 7 7 11 13 13 10 10 8 8 7 7 8 9 8 9 6 7 7 10 12 11 12 11 9 9 8 4
5 13 15 19 18 15 14 17 16 16 12 4 7 6 8 7 8 7 6 3 7 7 4 8 8 10 13 8 9 6 5 5 6 9 10 7 6 7 4 5 4 5 8 3 5 6 4 6 4
13 13 15 18 16 14 16 18 16 18 16 17 17 12 3 7 7 9 9 6 3 7 8 6 8 10 9 6 7 7 7 7 6 8 12 6 5 7 6 5 5 5 4 6 5 3 5 6 6
14 16 16 16 15 13 14 17 20 25 15 17 20 16 8 5 10 9 9 7 7 5 7 7 6 8 9 8 6 7 7 7 7 6 10 7 8 7 6 7 6 5 6 5 5 5 5 5 4
13 18 17 18 19 19 19 19 16 20 12 15 17 21 19 9 13 9 8 6 7 7 6 7 7 8 9 7 6 6 5 5 6 5 8 10 7 8 6 8 6 7 5 4 5 4 4 4 4
13 18 19 21 20 21 19 23 26 21 21 24 22 17 14 14 10 11 8 8 6 6 7 6 6 8 11 12 8 4 5 6 4 6 9 9 7 9 6 5 5 5 5 6 4 5 4 4 4
17 12 10 11 12 8 12 20 21 16 17 24 20 18 17 17 13 14 12 8 8 7 7 6 5 7 12 14 10 7 6 6 5 6 7 10 9 10 6 5 5 5 5 5 4 4 4 4 4
10 9 13 13 11 14 5 16 15 17 11 10 12 12 14 12 12 14 11 10 8 8 8 7 7 7 10 12 10 9 10 8 8 6 8 9 8 8 7 5 5 6 5 5 4 4 4 4 3
7 9 11 13 7 12 12 23 15 17 18 13 8 8 8 9 9 9 9 9 8 8 8 7 5 7 9 7 9 6 8 8 7 7 7 10 8 8 7 5 7 6 5 5 4 5 5 4 4
20 21 23 21 18 20 20 23 21 17 16 17 13 12 11 11 7 7 7 7 7 7 6 6 5 8 7 11 10 9 8 9 8 9 7 8 10 7 7 4 6 8 8 6 6 4 5 4 5
18 20 24 23 18 17 17 26 22 20 18 17 14 13 14 10 9 9 8 8 8 8 8 7 6 7 8 7 9 7 9 6 7 7 6 7 7 7 7 6 6 9 7 7 6 6 3 4 5
17 18 22 25 22 17 20 31 23 20 19 19 20 19 16 13 9 9 8 9 9 10 7 2 5 8 9 9 7 5 5 4 6 6 6 6 7 6 8 10 7 8 8 7 8 8 8 6 5
18 13 18 19 13 11 8 20 9 9 9 16 20 17 16 16 11 8 9 8 8 3 6 5 5 8 9 9 9 8 6 5 6 8 7 7 10 12 11 10 9 9 9 9 9 8 8 5 7
13 15 12 15 13 12 5 8 7 3 11 12 12 10 16 15 13 10 10 9 5 5 5 2 5 5 4 11 13 12 10 7 5 7 9 9 10 11 12 13 12 9 7 10 9 9 9 8 4
20 16 16 10 2 6 12 12 4 4 6 11 18 11 9 13 10 9 8 7 6 5 2 2 5 3 2 3 11 11 10 9 6 9 8 8 8 9 13 13 12 13 12 11 10 11 10 9 8
8 12 4 3 4 7 3 7 11 14 19 16 17 17 16 7 11 10 9 6 6 4 1 1 2 2 3 5 3 3 7 7 7 7 8 7 7 7 11 14 14 12 13 11 11 10 12 12 11
13 6 5 6 4 7 5 7 1 12 17 17 18 17 14 8 5 10 9 6 6 4 4 3 4 4 3 7 7 6 7 5 4 4 3 1 5 11 13 14 14 15 15 13 11 9 10 10 10
8 5 12 7 10 7 5 6 2 19 18 20 18 10 4 9 9 12 9 7 7 5 6 4 6 6 6 8 7 9 9 8 6 6 5 3 4 5 6 10 14 13 13 12 12 10 11 10 7
10 12 4 4 4 4 4 6 11 20 20 19 14 11 11 10 12 10 9 8 8 6 6 7 8 8 6 9 10 9 8 8 7 8 8 7 6 8 7 8 8 4 6 5 3 3 2 6 4
11 10 4 3 4 4 5 4 14 16 13 13 14 13 11 10 11 9 9 8 10 8 8 7 8 9 9 10 10 11 10 10 10 9 9 7 9 8 10 10 8 8 9 9 10 10 9 10 10
16 15 9 5 6 4 5 4 17 16 12 14 15 14 13 13 11 10 8 11 9 9 9 9 10 11 10 11 12 12 11 11 12 12 11 10 10 10 11 10 11 10 12 11 10 12 9 10 11
Wind_Direction
317 311 316 283 245 226 242 241 229 249 242 55 41 321 307 262 293 210 277 303 313 132 143 152 152 157 157 159 157 155 155 153 150 147 144 139 133 135 131 132 122 117 111 113 102 86 93 92 96
303 302 269 273 240 242 244 228 235 241 243 107 114 294 332 285 293 127 132 352 285 130 143 154 152 154 152 156 157 157 157 155 152 152 149 148 144 145 139 140 141 132 126 115 113 101 91 93 95
280 267 275 220 232 237 266 246 248 214 187 144 194 207 269 212 84 83 101 124 270 136 151 152 159 154 154 155 157 159 158 155 155 154 154 151 145 142 131 126 136 116 131 125 122 116 107 105 102
299 200 274 255 244 236 242 270 282 296 176 182 167 263 274 77 67 74 83 137 224 147 158 146 157 156 157 156 160 159 159 159 158 158 157 154 148 145 135 132 124 125 126 122 130 124 115 109 106
246 273 234 236 247 255 269 263 229 264 206 221 187 207 259 66 103 95 116 157 184 148 134 151 152 160 159 157 163 161 165 162 163 165 163 157 152 146 141 139 127 133 124 125 132 127 126 118 112
264 242 246 238 249 258 247 254 277 247 263 246 259 179 210 125 83 67 71 142 186 133 147 154 151 160 160 160 163 163 169 168 170 168 166 157 150 146 145 142 142 150 140 132 131 137 133 127 118
254 273 249 255 263 271 267 248 236 257 216 246 269 195 210 91 79 82 88 66 84 127 149 156 162 160 156 160 162 161 165 170 172 164 165 160 148 146 142 137 135 137 135 137 132 124 126 133 128
310 258 266 260 267 270 286 294 290 252 216 214 246 264 214 113 110 97 90 111 133 156 159 165 167 164 164 169 159 158 155 156 159 163 158 153 144 143 140 139 134 136 146 147 141 135 135 135 132
295 257 259 262 257 276 282 295 299 317 55 38 339 315 102 64 96 130 120 126 168 181 184 173 175 173 173 171 167 159 156 156 161 161 154 143 149 149 148 148 134 135 151 142 146 147 135 123 130
244 252 266 275 314 323 328 338 329 340 319 97 281 355 68 43 344 319 162 166 188 202 199 191 192 177 175 176 160 165 160 160 166 161 162 162 158 150 165 141 144 135 128 140 150 147 148 162 163
246 257 282 297 310 319 322 311 315 309 292 286 280 287 36 19 339 330 325 223 185 200 210 194 195 197 180 175 158 171 168 172 173 165 164 173 158 152 134 143 137 133 135 146 149 140 175 203 206
286 280 282 293 297 305 300 306 301 296 295 317 310 322 345 336 320 309 325 304 226 188 202 207 210 197 189 153 160 177 175 175 179 178 169 164 155 157 142 154 149 147 163 167 186 186 198 214 224
288 277 281 282 287 282 285 279 283 276 282 293 298 293 289 278 295 295 278 289 299 281 190 213 207 209 182 179 176 178 176 176 172 172 170 157 157 161 150 162 165 167 165 176 185 194 202 183 195
292 290 292 287 281 278 272 266 256 260 290 265 254 270 278 261 266 264 277 270 282 272 245 185 209 212 153 187 195 188 132 152 158 156 166 161 155 171 175 168 163 168 169 193 174 190 189 193 188
320 306 292 276 273 260 249 256 252 264 254 256 259 256 251 254 260 256 251 261 275 298 300 224 216 201 170 177 179 166 152 149 157 157 167 161 159 173 166 152 162 159 157 171 176 208 188 190 195
283 281 274 284 300 262 233 253 254 264 245 241 242 244 247 251 230 257 260 248 258 247 262 270 217 189 181 180 170 175 161 171 171 156 172 172 179 171 151 156 165 169 156 160 173 202 198 193 192
230 264 250 285 285 256 245 258 256 256 268 267 222 226 225 233 234 238 251 252 248 254 249 250 198 191 196 197 163 173 169 178 183 163 177 179 171 177 165 160 167 168 157 164 172 207 180 198 205
276 264 258 261 252 269 257 258 258 269 286 281 271 267 243 235 236 245 246 245 238 252 234 232 217 186 187 229 166 168 179 175 175 195 179 184 185 187 158 163 167 162 156 172 184 184 203 180 199
266 274 276 269 278 292 287 263 262 265 265 264 258 255 241 237 243 242 240 258 286 267 282 252 254 198 179 187 171 194 178 176 177 191 177 176 190 182 156 171 167 167 174 183 185 186 187 220 198
256 267 271 278 263 263 269 267 273 263 254 258 258 259 254 233 220 220 238 254 262 265 249 250 255 212 188 201 183 183 175 179 168 177 161 163 159 166 167 177 183 178 175 184 188 181 194 201 206
262 264 273 270 283 270 273 274 267 260 247 248 250 251 255 246 218 212 220 230 231 248 212 56 342 242 205 188 185 155 152 149 171 158 161 176 183 180 196 194 189 179 183 193 194 185 192 196 227
283 271 274 271 272 270 211 288 229 281 241 232 241 238 238 238 238 207 216 240 221 142 52 32 331 312 220 187 174 166 191 164 190 177 169 176 192 200 200 209 200 189 191 195 199 192 196 181 203
275 299 284 284 269 292 219 262 113 290 282 267 249 235 225 225 218 207 215 218 130 81 74 13 291 275 285 202 191 185 172 190 168 182 192 184 189 196 205 208 203 193 205 209 189 200 195 204 184
286 283 273 251 234 248 220 206 342 265 328 350 337 321 276 205 205 192 207 147 111 72 43 243 244 246 308 340 191 183 182 189 164 177 184 196 198 203 206 210 207 208 206 202 197 203 196 199 210
337 292 285 223 206 230 330 208 247 15 351 327 304 302 304 238 180 168 136 122 99 89 103 306 242 134 26 74 10 100 172 184 189 183 195 200 197 200 207 207 207 207 212 202 200 201 200 204 208
312 314 284 289 299 311 177 237 264 3 337 323 303 279 288 332 112 95 100 102 87 72 66 85 69 64 35 78 56 47 71 60 56 37 28 216 236 234 212 202 211 213 211 206 200 206 212 206 210
316 297 305 282 260 259 215 32 134 347 340 329 305 236 168 58 59 77 76 82 70 53 56 65 74 65 53 70 70 60 46 50 55 38 38 5 347 324 339 207 204 211 216 205 197 206 213 206 198
280 297 299 218 293 287 33 61 330 344 345 347 356 74 90 96 74 68 73 73 70 55 55 76 74 69 70 70 66 63 56 58 60 55 45 29 15 17 21 33 7 49 65 37 200 171 95 115 75
348 352 271 281 291 324 333 87 349 341 349 359 1 35 51 61 67 70 76 71 66 61 61 68 74 74 71 70 68 64 56 54 58 59 46 40 42 37 43 39 42 40 46 66 75 57 48 84 84
14 3 352 334 4 315 299 80 355 346 2 24 20 33 43 47 52 50 55 63 64 59 58 63 67 70 60 71 72 68 63 58 54 52 44 42 48 44 54 52 54 47 54 54 69 81 65 78 80